Home   Weather   Gitarama   Past weeks

Flag for Rwanda Past Weather in Gitarama, Rwanda — Yesterday and Last 2 Weeks

Now
77 °F

Scattered clouds.


Feels Like: 79 °F
Forecast: 57 / 78 °F
Wind: 8 mph from South

Location: Kigali Airport

Current Time: Dec 9, 2016 at 11:45:37 am

Latest Report: Dec 9, 2016 at 11:00 am


Visibility: N/A

Pressure: 30.18 "Hg (24.35 "Hg at 1872m altitude)

Humidity: 57%

Dew Point: 61 °F

Location of GitaramaLocation

Past Weather in Gitarama — Graph

°F

Gitarama Temperature Yesterday

Maximum temperature yesterday: 81 °F (at 1:30 pm)
Minimum temperature yesterday: 59 °F (at 4:30 am)
Average temperature yesterday: 69 °F

High & Low Weather Summary for the Past Weeks

 TemperatureHumidityPressure
High82 °F (Nov 24, 2:00 pm)100% (Nov 25, 5:30 am)30.24 "Hg (Nov 25, 5:30 am)
Low59 °F (Dec 4, 2:00 am)39% (Dec 6, 10:30 am)29.95 "Hg (Nov 28, 3:30 pm)
Average69 °F77%30.11 "Hg
* Reported Nov 24 10:00 am — Dec 9 10:00 am, Gitarama, Weather by CustomWeather, © 2016

Note: Actual official high and low records may vary slightly from our data, if they occured in-between our weather recording intervals... More about our weather records

Advertising

Gitarama Weather History for the Previous 24 Hours

Scroll right to see more
 ConditionsComfort  
Time TempWeatherWind HumidityBarometerVisibility
10:00 am
Fri, Dec 9
73 °FScattered clouds.6 mph65%30.21 "HgN/A
9:30 am73 °FScattered clouds.2 mph65%30.21 "HgN/A
9:00 am70 °FPassing clouds.2 mph78%30.21 "HgN/A
8:30 am68 °FPassing clouds.1 mph78%30.21 "HgN/A
8:00 am66 °FPassing clouds.5 mph83%30.21 "HgN/A
7:30 am66 °FPassing clouds.1 mph83%30.18 "Hg4 mi
7:00 am63 °FPassing clouds.No wind88%30.18 "Hg4 mi
6:30 am61 °FPassing clouds.No wind94%30.15 "Hg4 mi
8:00 pm
Thu, Dec 8
70 °FPassing clouds.6 mph73%30.12 "HgN/A
7:30 pm70 °FPassing clouds.5 mph73%30.12 "HgN/A
7:00 pm70 °FPassing clouds.3 mph73%30.09 "HgN/A
4:00 pm77 °FScattered clouds.14 mph54%30.07 "HgN/A
3:00 pm79 °FScattered clouds.13 mph48%30.07 "HgN/A
2:30 pm81 °FScattered clouds.9 mph45%30.07 "HgN/A
2:00 pm79 °FScattered clouds.8 mph48%30.07 "HgN/A
1:30 pm81 °FScattered clouds.5 mph51%30.09 "HgN/A
1:00 pm77 °FScattered clouds.5 mph54%30.12 "HgN/A
11:30 am77 °FScattered clouds.5 mph57%30.15 "HgN/A
11:00 am77 °FScattered clouds.3 mph57%30.18 "HgN/A
Weather by CustomWeather, © 2016

See weather overviewHow to use our weather pages